Location: Arboyeti
(42.1122°N, 44.6017°E)
Time: 20:31:16
(UTC+00:00)

N. Korean satellite - Pass Details

Date: 02 October 2021
Orbit: 450 x 494 km, 97.3° (Epoch: 28 October)

Event Time Altitude Azimuth Distance (km) Brightness Sun altitude
Rises 01:47:51 0° 21° (NNE) 2,556 10.6 -14.1°
Reaches altitude 10° 01:50:03 10° 31° (NNE) 1,678 9.8 -13.7°
Maximum altitude 01:53:21 33° 97° (E) 846 8.5 -13.1°
Drops below altitude 10° 01:56:39 10° 163° (SSE) 1,682 9.4 -12.5°
Sets 01:58:52 0° 173° (S) 2,563 10.3 -12.1°
